Tracking 19795 objects as of 20-Jul-2019
HD Live streaming from Space Station
objects crossing your sky now

THORAD AGENA D DEB

Track THORAD AGENA D DEB now!
10-day predictions


NORAD ID: 10136
Int'l Code: 1970-025NQ
Perigee: 1,071.9 km
Apogee: 1,074.9 km
Inclination: 99.9 °
Period: 106.5 minutes
Semi major axis: 7444 km
RCS: 0.0546 m2 (small)
Launch date: April 8, 1970
Source: United States (US)
Launch site: AIR FORCE WESTERN TEST RANGE (AFWTR)

Note: This is SATELLITE DEBRIS
aabbcc
Your satellite tracking list
Your tracking list is empty




NASA's NSSDC Master Catalog

Two Line Element Set (TLE):
1 10136U 70025NQ  19200.64187826 +.00000005 +00000-0 +76359-4 0  9998
2 10136 099.9202 120.1539 0002025 086.9777 030.7479 13.51638604429404
Source of the keplerian elements: AFSPC